User: anonymous   Login
Location: Castelbiague
(43.0361°N, 0.9246°E)
Time: 15:31:19
(UTC+00:00)
Language:

Cosmos 968 Rocket - Orbit

View from above orbital plane
View from above orbital plane
View from above satellite
View from above satellite

Ground track
Ground track

The orbit data is extracted from the following two-line orbital elements,

1 10521U 77119B   21262.75771421 -.00000040  00000-0 -40748-5 0  9995
2 10521  74.0239 267.7497 0022316 261.8179  98.0445 14.40837510295971
Epoch (UTC): 19 September 2021 18:11:06
Eccentricity: 0.0022316
inclination: 74.0239°
perigee height: 740 km
apogee height: 771 km
right ascension of ascending node: 267.7497°
argument of perigee: 261.8179°
revolutions per day: 14.40837510
mean anomaly at epoch: 98.0445°
orbit number at epoch: 29597

The dashed part of the orbit path shows where the satellite is in the earth's shadow,  

DLR